FW0288 Weather Reports


Display with metric or nautical units.
time (UTC)temp
F
wind
direction
speed
MPH
gust
MPH
rain 1hr
in
rain 24hr
in
rain mn
in
humidity
%
barometer
mb
20260906223014 89 297 0.0 4.0 0.00 0.00 0.00 35 1000.2
20260906221511 89 302 0.0 3.0 0.00 0.00 0.00 35 1000.4
20260906220011 89 262 0.0 8.0 0.00 0.00 0.00 35 1000.6
20260906214508 87 11 1.0 4.0 0.00 0.00 0.00 36 1000.8
20260906213005 87 72 0.0 4.0 0.00 0.00 0.00 37 1001.1
20260906211502 85 360 1.0 5.0 0.00 0.00 0.00 40 1001.2
20260906210000 86 360 0.0 8.0 0.00 0.00 0.00 38 1001.5
20260906204609 87 360 0.0 6.0 0.00 0.00 0.00 40 1001.6
20260906203059 89 37 0.0 3.0 0.00 0.00 0.00 36 1001.8
20260906201556 86 284 0.0 4.0 0.00 0.00 0.00 38 1001.9
20260906200055 84 360 1.0 10.0 0.00 0.00 0.00 38 1002.0
20260906194552 84 360 0.0 6.0 0.00 0.00 0.00 40 1002.2
20260906193051 83 360 0.0 9.0 0.00 0.00 0.00 42 1002.2
20260906191558 84 114 0.0 5.0 0.00 0.00 0.00 41 1002.4
20260906190046 82 360 0.0 5.0 0.00 0.00 0.00 44 1002.6
20260906184551 81 360 0.0 5.0 0.00 0.00 0.00 46 1003.0
20260906183045 82 360 0.0 3.0 0.00 0.00 0.00 47 1003.3
20260906181538 81 101 0.0 3.0 0.00 0.00 0.00 46 1003.5
20260906180043 80 360 0.0 1.0 0.00 0.00 0.00 45 1003.7
20260906174535 82 89 0.0 0.0 0.00 0.00 0.00 45 1004.0
20260906173029 80 360 0.0 0.0 0.00 0.00 0.00 44 1004.5
20260906171526 78 360 0.0 3.0 0.00 0.00 0.00 50 1004.6
20260906170024 77 360 0.0 0.0 0.00 0.00 0.00 53 1004.8
20260906164520 76 63 0.0 0.0 0.00 0.00 0.00 56 1004.9
20260906163017 74 360 0.0 0.0 0.00 0.00 0.00 60 1005.0
20260906161514 74 26 0.0 0.0 0.00 0.00 0.00 60 1004.9
20260906160014 74 21 0.0 0.0 0.00 0.00 0.00 61 1004.9
20260906154508 73 47 0.0 5.0 0.00 0.00 0.00 61 1005.0
20260906153012 73 309 0.0 0.0 0.00 0.00 0.00 64 1005.0
20260906151608 71 309 0.0 0.0 0.00 0.00 0.00 68 1005.0
20260906150058 70 342 0.0 0.0 0.00 0.00 0.00 68 1005.2
20260906144556 70 344 0.0 0.0 0.00 0.00 0.00 72 1005.1
20260906143055 68 346 0.0 0.0 0.00 0.00 0.00 72 1005.4
20260906141551 68 355 0.0 0.0 0.00 0.00 0.00 73 1005.3
20260906140055 66 269 0.0 0.0 0.00 0.00 0.00 74 1005.2
20260906134543 65 267 0.0 0.0 0.00 0.00 0.00 74 1005.0
20260906133039 64 266 0.0 2.0 0.00 0.00 0.00 77 1005.2
20260906131535 63 304 0.0 0.0 0.00 0.00 0.00 78 1005.2
20260906130040 61 348 0.0 0.0 0.00 0.00 0.00 78 1005.2
20260906124528 61 348 0.0 0.0 0.00 0.00 0.00 76 1005.0
20260906123027 61 348 0.0 0.0 0.00 0.00 0.00 75 1004.9
20260906121525 61 348 0.0 0.0 0.00 0.00 0.00 75 1004.8
20260906120023 62 348 0.0 0.0 0.00 0.00 0.00 75 1004.8
20260906114523 62 348 0.0 0.0 0.00 0.00 0.00 74 1004.7
20260906113021 62 348 0.0 0.0 0.00 0.00 0.00 73 1004.8
20260906111518 62 347 0.0 0.0 0.00 0.00 0.00 73 1004.6
20260906110017 63 346 0.0 0.0 0.00 0.00 0.00 72 1004.4
20260906104516 63 347 0.0 0.0 0.00 0.00 0.00 71 1004.6
20260906103015 63 346 0.0 0.0 0.00 0.00 0.00 72 1004.3
20260906101512 64 346 0.0 0.0 0.00 0.00 0.00 72 1004.4
20260906100010 64 350 0.0 0.0 0.00 0.00 0.00 70 1004.3
20260906094510 65 350 0.0 0.0 0.00 0.00 0.00 68 1004.3
20260906093012 65 350 0.0 0.0 0.00 0.00 0.00 66 1004.4
20260906091502 66 350 0.0 0.0 0.00 0.00 0.00 61 1004.2
20260906090125 67 350 0.0 0.0 0.00 0.00 0.00 58 1004.0
20260906084557 68 350 0.0 1.0 0.00 0.00 0.00 54 1003.9
20260906083054 68 267 0.0 0.0 0.00 0.00 0.00 52 1003.7
20260906081551 69 267 0.0 0.0 0.00 0.00 0.00 49 1003.7
20260906080057 69 236 0.0 0.0 0.00 0.00 0.00 49 1003.7
20260906074555 69 200 0.0 0.0 0.00 0.00 0.00 49 1003.7
20260906073046 70 200 0.0 0.0 0.00 0.00 0.00 48 1003.7
20260906071545 71 200 0.0 0.0 0.00 0.00 0.00 48 1003.7
20260906070044 70 200 0.0 0.0 0.00 0.00 0.00 49 1003.7
20260906064542 71 200 0.0 0.0 0.00 0.00 0.00 46 1003.7
20260906063040 72 200 0.0 0.0 0.00 0.00 0.00 45 1004.0
20260906061540 73 200 0.0 1.0 0.00 0.00 0.00 44 1003.9
20260906060037 73 159 0.0 0.0 0.00 0.00 0.00 44 1003.8
20260906054535 74 159 0.0 0.0 0.00 0.00 0.00 43 1003.5
20260906053034 75 159 0.0 0.0 0.00 0.00 0.00 42 1004.3
20260906051534 73 360 0.0 0.0 0.00 0.00 0.00 43 1004.6
20260906050032 72 360 0.0 4.0 0.00 0.00 0.00 45 1004.4
20260906044533 73 355 0.0 0.0 0.00 0.00 0.00 46 1003.8
20260906043028 73 355 0.0 1.0 0.00 0.00 0.00 43 1003.8
20260906041538 73 355 0.0 0.0 0.00 0.00 0.00 44 1003.6
20260906040026 74 355 0.0 0.0 0.00 0.00 0.00 42 1003.2
20260906034530 74 355 0.0 0.0 0.00 0.00 0.00 40 1002.9
20260906033028 75 355 0.0 0.0 0.00 0.00 0.00 40 1002.8
20260906031524 75 351 0.0 0.0 0.00 0.00 0.00 39 1002.8
20260906030025 76 283 0.0 0.0 0.00 0.00 0.00 38 1002.3
20260906024523 78 282 0.0 0.0 0.00 0.00 0.00 34 1001.8
20260906023024 79 283 0.0 0.0 0.00 0.00 0.00 33 1001.7
20260906021523 80 283 0.0 1.0 0.00 0.00 0.00 32 1001.5
20260906020023 81 285 0.0 3.0 0.00 0.00 0.00 31 1001.5
20260906014527 81 279 0.0 3.0 0.00 0.00 0.00 31 1001.6
20260906013022 82 281 0.0 2.0 0.00 0.00 0.00 31 1001.2
20260906011521 82 284 0.0 4.0 0.00 0.00 0.00 30 1001.4
20260906010020 83 273 0.0 6.0 0.00 0.00 0.00 30 1001.3
20260906004520 84 279 0.0 11.0 0.00 0.00 0.00 29 1001.4
20260906003019 86 252 1.0 7.0 0.00 0.00 0.00 27 1001.5
20260906001517 87 292 0.0 0.0 0.00 0.00 0.00 26 1001.4
20260906000017 88 292 0.0 0.0 0.00 0.00 0.00 24 1001.3
20260905234516 88 298 0.0 1.0 0.00 0.00 0.00 25 1001.3
20260905233014 87 303 0.0 3.0 0.00 0.00 0.00 25 1001.2
20260905231513 89 11 0.0 4.0 0.00 0.00 0.00 23 1001.1
20260905230011 90 355 0.0 1.0 0.00 0.00 0.00 24 1000.9
20260905224517 89 317 0.0 1.0 0.00 0.00 0.00 23 1000.9